• In Hungary
  • List of Countries
  • For 7 days
  • Water Temperature
  • Satellite Maps
  • Weather Map
  • News
  • Weather Widgets
  • user-avatar
    Login

    Hourly Weather Kolokol'nyy

    Today, 19 October, Friday

    Time Temperature Precipitation Wind Pressure Humidity
    00:00 +2°C° 0 mm 1 mps 710 mmHg 84%
    01:00 +2°C° 0 mm 1 mps 710 mmHg 83%
    02:00 0°C° 0 mm 0 mps 710 mmHg 82%
    03:00 0°C° 0 mm 0 mps 710 mmHg 82%
    04:00 0°C° 0 mm 0 mps 710 mmHg 81%
    05:00 0°C° 0 mm 0 mps 710 mmHg 81%
    06:00 +1°C° 0 mm 0 mps 710 mmHg 78%
    07:00 +2°C° 0 mm 1 mps 710 mmHg 75%
    08:00 +3°C° 0 mm 1 mps 710 mmHg 72%
    09:00 +4°C° 0 mm 1 mps 710 mmHg 67%
    10:00 +6°C° 0 mm 1 mps 709 mmHg 63%
    11:00 +6°C° 0 mm 2 mps 709 mmHg 58%
    12:00 +7°C° 0 mm 2 mps 708 mmHg 59%
    13:00 +7°C° 0 mm 2 mps 708 mmHg 60%
    14:00 +8°C° 0 mm 2 mps 707 mmHg 60%
    15:00 +8°C° 0 mm 1 mps 707 mmHg 67%
    16:00 +6°C° 0 mm 1 mps 707 mmHg 75%
    17:00 +5°C° 0 mm 1 mps 707 mmHg 82%
    18:00 +5°C° 0 mm 1 mps 707 mmHg 83%
    19:00 +4°C° 0 mm 1 mps 707 mmHg 85%
    20:00 +4°C° 0 mm 1 mps 707 mmHg 86%
    21:00 +3°C° 0 mm 1 mps 707 mmHg 87%
    22:00 +3°C° 0 mm 1 mps 708 mmHg 88%
    23:00 +3°C° 0 mm 1 mps 708 mmHg 88%

    Tomorrow, 20 October, Saturday

    Time Temperature Precipitation Wind Pressure Humidity
    00:00 +2°C° 0 mm 1 mps 708 mmHg 89%
    01:00 +2°C° 0 mm 1 mps 708 mmHg 90%
    02:00 +2°C° 0 mm 1 mps 709 mmHg 91%
    03:00 +2°C° 0 mm 1 mps 709 mmHg 91%
    04:00 +1°C° 0 mm 1 mps 709 mmHg 91%
    05:00 +1°C° 0 mm 1 mps 709 mmHg 91%
    06:00 +2°C° 0 mm 1 mps 709 mmHg 87%
    07:00 +2°C° 0 mm 1 mps 710 mmHg 82%
    08:00 +3°C° 0 mm 1 mps 710 mmHg 78%
    09:00 +4°C° 0 mm 1 mps 710 mmHg 70%
    10:00 +5°C° 0 mm 1 mps 710 mmHg 63%
    11:00 +6°C° 0 mm 2 mps 710 mmHg 55%
    12:00 +6°C° 0 mm 2 mps 710 mmHg 54%
    13:00 +6°C° 0 mm 2 mps 709 mmHg 54%
    14:00 +7°C° 0 mm 2 mps 709 mmHg 53%
    15:00 +5°C° 0 mm 2 mps 709 mmHg 59%
    16:00 +5°C° 0 mm 1 mps 709 mmHg 65%
    17:00 +4°C° 0 mm 1 mps 708 mmHg 70%
    18:00 +3°C° 0 mm 1 mps 708 mmHg 72%
    19:00 +2°C° 0 mm 1 mps 708 mmHg 74%
    20:00 +2°C° 0 mm 1 mps 709 mmHg 75%
    21:00 +1°C° 0 mm 1 mps 708 mmHg 75%
    22:00 +1°C° 0 mm 1 mps 708 mmHg 76%
    23:00 +1°C° 0 mm 1 mps 708 mmHg 76%

    Day after tomorrow, 21 October, Sunday

    Time Temperature Precipitation Wind Pressure Humidity
    00:00 0°C° 0 mm 1 mps 708 mmHg 76%
    01:00 0°C° 0 mm 1 mps 708 mmHg 75%
    02:00 0°C° 0 mm 1 mps 708 mmHg 75%
    03:00 0°C° 0 mm 1 mps 707 mmHg 75%
    04:00 0°C° 0 mm 1 mps 707 mmHg 75%
    05:00 0°C° 0 mm 1 mps 707 mmHg 74%
    06:00 0°C° 0 mm 1 mps 707 mmHg 72%
    07:00 +1°C° 0 mm 1 mps 707 mmHg 69%
    08:00 +1°C° 0 mm 1 mps 707 mmHg 66%
    09:00 +1°C° 0.2 mm 1 mps 707 mmHg 68%
    10:00 +1°C° 0.2 mm 2 mps 707 mmHg 69%
    11:00 +1°C° 0.2 mm 2 mps 706 mmHg 70%
    12:00 +2°C° 0.5 mm 1 mps 706 mmHg 73%
    13:00 +2°C° 0.5 mm 1 mps 706 mmHg 77%
    14:00 +2°C° 0.5 mm 1 mps 706 mmHg 80%
    15:00 +2°C° 0.1 mm 1 mps 706 mmHg 82%
    16:00 +2°C° 0.1 mm 1 mps 706 mmHg 85%
    17:00 +2°C° 0.1 mm 1 mps 706 mmHg 87%
    18:00 +2°C° 0 mm 1 mps 706 mmHg 87%
    19:00 +2°C° 0 mm 1 mps 706 mmHg 87%
    20:00 +2°C° 0 mm 1 mps 706 mmHg 87%
    21:00 +1°C° 0 mm 1 mps 706 mmHg 88%
    22:00 +1°C° 0 mm 1 mps 706 mmHg 88%
    23:00 +1°C° 0 mm 1 mps 705 mmHg 88%

    22 October, Monday

    Time Temperature Precipitation Wind Pressure Humidity
    00:00 +1°C° 0 mm 1 mps 705 mmHg 89%
    01:00 +1°C° 0 mm 1 mps 705 mmHg 89%
    02:00 +1°C° 0 mm 1 mps 705 mmHg 90%
    03:00 +1°C° 0.1 mm 1 mps 705 mmHg 90%
    04:00 +1°C° 0.1 mm 1 mps 705 mmHg 90%
    05:00 +1°C° 0.1 mm 1 mps 705 mmHg 91%
    06:00 +1°C° 0.1 mm 1 mps 705 mmHg 90%
    07:00 +2°C° 0.1 mm 1 mps 705 mmHg 89%
    08:00 +2°C° 0.1 mm 1 mps 705 mmHg 89%
    09:00 +1°C° 0.1 mm 2 mps 705 mmHg 86%
    10:00 +2°C° 0.1 mm 2 mps 705 mmHg 84%
    11:00 +3°C° 0.1 mm 2 mps 705 mmHg 81%
    12:00 +3°C° 0 mm 2 mps 704 mmHg 81%
    13:00 +3°C° 0 mm 2 mps 704 mmHg 80%
    14:00 +3°C° 0 mm 2 mps 704 mmHg 79%
    15:00 +3°C° 0 mm 2 mps 704 mmHg 82%
    16:00 +2°C° 0 mm 2 mps 703 mmHg 86%
    17:00 +2°C° 0 mm 2 mps 703 mmHg 89%
    18:00 +2°C° 0.1 mm 2 mps 703 mmHg 89%
    19:00 +1°C° 0.1 mm 2 mps 703 mmHg 89%
    20:00 +1°C° 0.1 mm 2 mps 703 mmHg 89%
    21:00 0°C° 0.6 mm 3 mps 702 mmHg 88%
    22:00 0°C° 0.6 mm 3 mps 702 mmHg 88%
    23:00 0°C° 0.6 mm 3 mps 701 mmHg 88%

    23 October, Tuesday

    Time Temperature Precipitation Wind Pressure Humidity
    00:00 0°C° 0.9 mm 3 mps 701 mmHg 88%
    01:00 -1°C° 0.9 mm 4 mps 701 mmHg 88%
    02:00 -1°C° 0.9 mm 4 mps 700 mmHg 89%
    03:00 -1°C° 0.6 mm 4 mps 700 mmHg 89%
    04:00 -2°C° 0.6 mm 4 mps 700 mmHg 88%
    05:00 -2°C° 0.6 mm 4 mps 700 mmHg 88%
    06:00 -2°C° 0.6 mm 4 mps 699 mmHg 88%
    07:00 -1°C° 0.6 mm 3 mps 699 mmHg 88%
    08:00 -1°C° 0.6 mm 3 mps 699 mmHg 89%
    09:00 -1°C° 0.5 mm 3 mps 699 mmHg 88%
    10:00 0°C° 0.5 mm 3 mps 699 mmHg 88%
    11:00 0°C° 0.5 mm 3 mps 699 mmHg 88%
    12:00 0°C° 0.5 mm 3 mps 699 mmHg 89%
    13:00 +1°C° 0.5 mm 2 mps 699 mmHg 90%
    14:00 +1°C° 0.5 mm 2 mps 699 mmHg 91%
    15:00 +1°C° 0.2 mm 2 mps 699 mmHg 91%
    16:00 +1°C° 0.2 mm 2 mps 700 mmHg 92%
    17:00 -1°C° 0.2 mm 2 mps 700 mmHg 92%
    18:00 -1°C° 0.1 mm 2 mps 700 mmHg 92%
    19:00 -1°C° 0.1 mm 2 mps 700 mmHg 92%
    20:00 -1°C° 0.1 mm 2 mps 701 mmHg 92%
    21:00 -1°C° 0 mm 2 mps 701 mmHg 92%
    22:00 -2°C° 0 mm 2 mps 701 mmHg 93%
    23:00 -2°C° 0 mm 2 mps 701 mmHg 93%

    24 October, Wednesday

    Time Temperature Precipitation Wind Pressure Humidity
    00:00 -2°C° 0 mm 2 mps 701 mmHg 93%
    01:00 -2°C° 0 mm 2 mps 701 mmHg 92%
    02:00 -3°C° 0 mm 2 mps 701 mmHg 92%
    03:00 -1°C° 0 mm 1 mps 701 mmHg 93%
    04:00 -2°C° 0 mm 1 mps 701 mmHg 93%
    05:00 -2°C° 0 mm 1 mps 701 mmHg 94%
    06:00 -2°C° 0 mm 1 mps 702 mmHg 92%
    07:00 -1°C° 0 mm 1 mps 702 mmHg 90%
    08:00 -3°C° 0 mm 2 mps 703 mmHg 88%
    09:00 -2°C° 0 mm 2 mps 703 mmHg 85%
    10:00 -1°C° 0 mm 2 mps 703 mmHg 81%
    11:00 +1°C° 0 mm 2 mps 703 mmHg 77%
    12:00 +2°C° 0 mm 2 mps 704 mmHg 76%
    13:00 +2°C° 0 mm 2 mps 704 mmHg 75%
    14:00 +1°C° 0 mm 3 mps 704 mmHg 75%
    15:00 +1°C° 0 mm 2 mps 704 mmHg 79%
    16:00 -1°C° 0 mm 2 mps 705 mmHg 83%
    17:00 -1°C° 0 mm 1 mps 705 mmHg 87%
    18:00 -1°C° 0 mm 1 mps 705 mmHg 88%
    19:00 -2°C° 0 mm 1 mps 706 mmHg 89%
    20:00 -2°C° 0 mm 1 mps 706 mmHg 90%
    21:00 -2°C° 0 mm 1 mps 706 mmHg 90%
    22:00 -3°C° 0 mm 1 mps 707 mmHg 90%
    23:00 -3°C° 0 mm 1 mps 707 mmHg 90%
    Show more